SKG858 KROC-CYOO

Flight info

Callsign SKG858
Flight time 0h 18m
Altitude 20000
Route DCT
Aircraft C25B/M-SDE2E3FGHRWXY/LB1

Departure

Time 2026-04-20 23:36
Airport Frederick Douglass Greater Rochester International Airport (KROC)

Arrival

Time 2026-04-20 23:54
Airport Oshawa Executive Airport (CYOO)
Time Latitude Longitude Altitude Speed Heading
2026-04-20 23:27 43.11947 -77.65867 541 ft 6 kts 34°
2026-04-20 23:27 43.11960 -77.65858 541 ft 0 kts 12°
2026-04-20 23:29 43.12023 -77.65862 541 ft 12 kts 322°
2026-04-20 23:29 43.12093 -77.65923 540 ft 9 kts 310°
2026-04-20 23:29 43.12096 -77.65936 540 ft 0 kts 247°
2026-04-20 23:33 43.12096 -77.65935 540 ft 0 kts 247°
2026-04-20 23:35 43.12095 -77.65937 540 ft 4 kts 248°
2026-04-20 23:35 43.11863 -77.66581 584 ft 143 kts 246°
2026-04-20 23:36 43.11483 -77.68009 2010 ft 167 kts 268°
2026-04-20 23:36 43.11790 -77.69578 3802 ft 190 kts 296°
2026-04-20 23:36 43.12677 -77.71107 5345 ft 224 kts 316°
2026-04-20 23:36 43.13875 -77.72599 7160 ft 245 kts 314°
2026-04-20 23:37 43.15063 -77.74242 9500 ft 235 kts 315°
2026-04-20 23:37 43.16203 -77.75771 11874 ft 223 kts 317°
2026-04-20 23:37 43.17299 -77.77212 14024 ft 219 kts 317°
2026-04-20 23:37 43.18304 -77.78789 15742 ft 219 kts 313°
2026-04-20 23:38 43.19248 -77.80394 17551 ft 212 kts 315°
2026-04-20 23:38 43.20201 -77.81864 19338 ft 200 kts 320°
2026-04-20 23:38 43.21185 -77.83281 20321 ft 214 kts 320°
2026-04-20 23:38 43.22290 -77.84866 20358 ft 245 kts 319°
2026-04-20 23:39 43.23521 -77.86677 20383 ft 271 kts 318°
2026-04-20 23:39 43.24835 -77.88623 20379 ft 292 kts 317°
2026-04-20 23:39 43.26256 -77.90722 20382 ft 308 kts 318°
2026-04-20 23:39 43.27753 -77.92921 20384 ft 321 kts 317°
2026-04-20 23:40 43.29306 -77.95216 20382 ft 332 kts 317°
2026-04-20 23:40 43.30900 -77.97557 20383 ft 340 kts 317°
2026-04-20 23:40 43.31974 -77.99153 20315 ft 345 kts 317°
2026-04-20 23:40 43.34193 -78.02432 19736 ft 354 kts 317°
2026-04-20 23:41 43.35292 -78.04081 19426 ft 339 kts 317°
2026-04-20 23:41 43.36865 -78.06429 18984 ft 330 kts 317°
2026-04-20 23:41 43.38394 -78.08755 18530 ft 327 kts 315°
2026-04-20 23:41 43.39772 -78.11188 18024 ft 325 kts 312°
2026-04-20 23:42 43.41169 -78.13619 17533 ft 321 kts 315°
2026-04-20 23:42 43.42722 -78.15797 17112 ft 317 kts 319°
2026-04-20 23:42 43.44308 -78.17886 16675 ft 316 kts 320°
2026-04-20 23:42 43.45908 -78.19964 16190 ft 317 kts 319°
2026-04-20 23:43 43.47493 -78.22092 15671 ft 319 kts 318°
2026-04-20 23:43 43.49086 -78.24224 15154 ft 321 kts 318°
2026-04-20 23:43 43.50690 -78.26375 14633 ft 323 kts 317°
2026-04-20 23:43 43.52316 -78.28534 14099 ft 325 kts 317°
2026-04-20 23:44 43.53904 -78.30664 13561 ft 315 kts 317°
2026-04-20 23:44 43.55439 -78.32727 13061 ft 301 kts 317°
2026-04-20 23:44 43.56920 -78.34703 12581 ft 291 kts 317°
2026-04-20 23:44 43.58354 -78.36630 12112 ft 281 kts 316°
2026-04-20 23:45 43.59706 -78.38443 11674 ft 270 kts 317°
2026-04-20 23:45 43.61030 -78.40219 11248 ft 261 kts 316°
2026-04-20 23:45 43.62316 -78.41948 10831 ft 257 kts 316°
2026-04-20 23:45 43.63542 -78.43588 10434 ft 256 kts 316°
2026-04-20 23:46 43.64813 -78.45309 10000 ft 255 kts 316°
2026-04-20 23:46 43.66086 -78.47011 9580 ft 253 kts 315°
2026-04-20 23:46 43.67341 -78.48714 9167 ft 252 kts 315°
2026-04-20 23:46 43.68601 -78.50396 8755 ft 251 kts 315°
2026-04-20 23:47 43.69835 -78.52075 8355 ft 251 kts 315°
2026-04-20 23:47 43.71092 -78.53758 7948 ft 251 kts 315°
2026-04-20 23:47 43.72340 -78.55453 7535 ft 252 kts 314°
2026-04-20 23:47 43.73600 -78.57145 7130 ft 250 kts 315°
2026-04-20 23:48 43.74835 -78.58818 6716 ft 247 kts 313°
2026-04-20 23:48 43.76053 -78.60475 6305 ft 244 kts 314°
2026-04-20 23:48 43.77251 -78.62084 5913 ft 242 kts 314°
2026-04-20 23:48 43.78442 -78.63710 5522 ft 240 kts 314°
2026-04-20 23:49 43.79637 -78.65313 5135 ft 237 kts 314°
2026-04-20 23:49 43.80819 -78.66928 4739 ft 243 kts 314°
2026-04-20 23:49 43.82044 -78.68585 4337 ft 247 kts 315°
2026-04-20 23:49 43.83254 -78.70215 3943 ft 239 kts 314°
2026-04-20 23:50 43.84415 -78.71818 3558 ft 232 kts 314°
2026-04-20 23:50 43.85568 -78.73362 3178 ft 228 kts 315°
2026-04-20 23:50 43.86679 -78.74884 2809 ft 224 kts 315°
2026-04-20 23:50 43.87786 -78.76384 2446 ft 220 kts 315°
2026-04-20 23:51 43.88831 -78.77921 2107 ft 216 kts 304°
2026-04-20 23:51 43.89466 -78.79697 1929 ft 201 kts 292°
2026-04-20 23:51 43.89914 -78.81318 1695 ft 161 kts 292°
2026-04-20 23:51 43.90296 -78.82660 1482 ft 137 kts 291°
2026-04-20 23:52 43.90603 -78.83774 1263 ft 119 kts 291°
2026-04-20 23:52 43.90907 -78.84852 1088 ft 120 kts 288°
2026-04-20 23:52 43.91190 -78.85847 917 ft 102 kts 290°
2026-04-20 23:52 43.91429 -78.86772 771 ft 101 kts 284°
2026-04-20 23:53 43.91689 -78.87675 679 ft 101 kts 289°
2026-04-20 23:53 43.91949 -78.88592 547 ft 102 kts 287°
2026-04-20 23:53 43.92190 -78.89477 457 ft 88 kts 291°
2026-04-20 23:53 43.92364 -78.90097 460 ft 51 kts 292°
2026-04-20 23:54 43.92461 -78.90352 461 ft 20 kts 347°
2026-04-20 23:54 43.92492 -78.90242 462 ft 12 kts 98°
2026-04-20 23:54 43.92537 -78.90251 462 ft 10 kts 287°
2026-04-20 23:54 43.92559 -78.90270 462 ft 2 kts 38°
2026-04-20 23:55 43.92565 -78.90257 462 ft 0 kts 66°
2026-04-20 23:55 43.92566 -78.90252 462 ft 0 kts 89°